SKW6355 KPHX-KPSP

Flight info

Callsign SKW6355
Flight time 0h 42m
Altitude 26000
Route KEENS3 HRRBR CURIV RDBUL1
Aircraft CRJ7/M-SDFGIRWY/S

Departure

Time 2026-05-06 02:08
Airport Phoenix Sky Harbor International Airport (KPHX)

Arrival

Time 2026-05-06 02:50
Airport Palm Springs International Airport (KPSP)
Time Latitude Longitude Altitude Speed Heading
2026-05-06 01:41 33.43754 -111.99487 1120 ft 0 kts 90°
2026-05-06 02:02 33.43754 -111.99509 1117 ft 3 kts 90°
2026-05-06 02:03 33.43754 -111.99531 1122 ft 3 kts 90°
2026-05-06 02:03 33.43754 -111.99548 1122 ft 0 kts 90°
2026-05-06 02:04 33.43754 -111.99547 1122 ft 0 kts 84°
2026-05-06 02:04 33.43755 -111.99546 1122 ft 1 kts 54°
2026-05-06 02:05 33.43778 -111.99534 1118 ft 8 kts 12°
2026-05-06 02:05 33.43852 -111.99530 1117 ft 11 kts 359°
2026-05-06 02:05 33.43905 -111.99481 1122 ft 11 kts 88°
2026-05-06 02:05 33.43904 -111.99384 1122 ft 13 kts 89°
2026-05-06 02:06 33.43904 -111.99270 1122 ft 14 kts 96°
2026-05-06 02:06 33.43828 -111.99226 1119 ft 14 kts 180°
2026-05-06 02:06 33.43719 -111.99226 1122 ft 17 kts 180°
2026-05-06 02:06 33.43589 -111.99226 1122 ft 20 kts 180°
2026-05-06 02:07 33.43441 -111.99227 1120 ft 22 kts 180°
2026-05-06 02:07 33.43289 -111.99233 1119 ft 22 kts 183°
2026-05-06 02:07 33.43159 -111.99317 1115 ft 22 kts 223°
2026-05-06 02:07 33.43104 -111.99469 1122 ft 22 kts 270°
2026-05-06 02:08 33.43103 -111.99767 1122 ft 43 kts 271°
2026-05-06 02:08 33.43105 -112.00200 1123 ft 83 kts 270°
2026-05-06 02:08 33.43105 -112.01199 1167 ft 149 kts 270°
2026-05-06 02:08 33.43094 -112.02470 1982 ft 157 kts 269°
2026-05-06 02:09 33.43069 -112.03778 2894 ft 161 kts 266°
2026-05-06 02:09 33.42983 -112.05150 3669 ft 166 kts 259°
2026-05-06 02:09 33.42748 -112.06601 3944 ft 194 kts 260°
2026-05-06 02:09 33.42333 -112.08264 4106 ft 222 kts 251°
2026-05-06 02:10 33.41744 -112.10097 4567 ft 246 kts 249°
2026-05-06 02:10 33.41124 -112.12054 5344 ft 256 kts 251°
2026-05-06 02:10 33.40536 -112.14068 6314 ft 257 kts 252°
2026-05-06 02:10 33.39976 -112.16095 7128 ft 263 kts 253°
2026-05-06 02:11 33.39402 -112.18190 7975 ft 268 kts 253°
2026-05-06 02:11 33.39119 -112.20381 8831 ft 270 kts 274°
2026-05-06 02:11 33.39352 -112.22645 9625 ft 277 kts 280°
2026-05-06 02:11 33.39715 -112.24925 10417 ft 280 kts 282°
2026-05-06 02:12 33.40115 -112.27212 11219 ft 283 kts 281°
2026-05-06 02:12 33.40529 -112.29596 11631 ft 301 kts 281°
2026-05-06 02:12 33.40932 -112.32100 12257 ft 309 kts 279°
2026-05-06 02:12 33.41311 -112.34644 13040 ft 313 kts 279°
2026-05-06 02:13 33.41692 -112.37226 13794 ft 317 kts 278°
2026-05-06 02:13 33.42076 -112.39834 14489 ft 320 kts 278°
2026-05-06 02:13 33.42467 -112.42470 15153 ft 323 kts 278°
2026-05-06 02:13 33.42858 -112.45123 15848 ft 325 kts 278°
2026-05-06 02:14 33.43254 -112.47805 16501 ft 328 kts 278°
2026-05-06 02:14 33.43651 -112.50511 17136 ft 332 kts 278°
2026-05-06 02:14 33.44056 -112.53241 17768 ft 335 kts 278°
2026-05-06 02:14 33.44461 -112.55999 18368 ft 338 kts 278°
2026-05-06 02:15 33.44870 -112.58774 18930 ft 340 kts 278°
2026-05-06 02:15 33.45168 -112.61580 19504 ft 340 kts 272°
2026-05-06 02:15 33.45213 -112.64409 20067 ft 340 kts 268°
2026-05-06 02:15 33.45191 -112.67248 20644 ft 341 kts 268°
2026-05-06 02:16 33.45176 -112.70095 21176 ft 342 kts 268°
2026-05-06 02:16 33.45166 -112.72948 21699 ft 344 kts 269°
2026-05-06 02:16 33.45192 -112.75821 22213 ft 346 kts 269°
2026-05-06 02:16 33.45232 -112.79134 22770 ft 348 kts 270°
2026-05-06 02:17 33.45513 -112.82019 23247 ft 351 kts 278°
2026-05-06 02:17 33.46057 -112.84884 23650 ft 354 kts 282°
2026-05-06 02:17 33.46677 -112.87741 24035 ft 355 kts 282°
2026-05-06 02:17 33.47293 -112.90604 24426 ft 356 kts 281°
2026-05-06 02:18 33.47860 -112.93490 24797 ft 356 kts 279°
2026-05-06 02:18 33.48398 -112.96394 25171 ft 358 kts 279°
2026-05-06 02:18 33.48940 -112.99305 25539 ft 359 kts 279°
2026-05-06 02:18 33.49486 -113.02226 25890 ft 360 kts 278°
2026-05-06 02:19 33.50036 -113.05153 26255 ft 361 kts 278°
2026-05-06 02:19 33.50585 -113.08094 26605 ft 362 kts 278°
2026-05-06 02:19 33.51134 -113.11042 26948 ft 363 kts 278°
2026-05-06 02:19 33.51675 -113.13959 27290 ft 364 kts 278°
2026-05-06 02:20 33.52779 -113.19934 27773 ft 372 kts 277°
2026-05-06 02:20 33.53342 -113.22993 27842 ft 380 kts 278°
2026-05-06 02:20 33.53918 -113.26118 27892 ft 388 kts 278°
2026-05-06 02:21 33.54503 -113.29313 27912 ft 397 kts 278°
2026-05-06 02:21 33.55100 -113.32579 27930 ft 405 kts 278°
2026-05-06 02:21 33.55709 -113.35904 27944 ft 413 kts 278°
2026-05-06 02:21 33.56328 -113.39294 27955 ft 420 kts 278°
2026-05-06 02:22 33.56954 -113.42729 27963 ft 423 kts 278°
2026-05-06 02:22 33.57584 -113.46190 27976 ft 427 kts 278°
2026-05-06 02:22 33.58220 -113.49676 27970 ft 430 kts 279°
2026-05-06 02:22 33.58850 -113.53188 27973 ft 429 kts 278°
2026-05-06 02:23 33.59468 -113.56680 27971 ft 427 kts 278°
2026-05-06 02:23 33.60089 -113.60153 27967 ft 425 kts 279°
2026-05-06 02:23 33.60723 -113.63600 27964 ft 423 kts 279°
2026-05-06 02:23 33.61357 -113.67041 27967 ft 421 kts 279°
2026-05-06 02:24 33.61993 -113.70464 27961 ft 420 kts 279°
2026-05-06 02:24 33.62626 -113.73889 27950 ft 420 kts 279°
2026-05-06 02:24 33.63257 -113.77303 27936 ft 419 kts 279°
2026-05-06 02:24 33.63674 -113.79560 27930 ft 418 kts 279°
2026-05-06 02:25 33.64514 -113.84114 27915 ft 417 kts 279°
2026-05-06 02:25 33.64926 -113.86363 27914 ft 417 kts 279°
2026-05-06 02:25 33.65555 -113.89758 27901 ft 416 kts 279°
2026-05-06 02:25 33.66179 -113.93151 27900 ft 416 kts 279°
2026-05-06 02:26 33.66800 -113.96544 27887 ft 416 kts 279°
2026-05-06 02:26 33.67421 -113.99934 27871 ft 416 kts 280°
2026-05-06 02:26 33.68042 -114.03330 27895 ft 417 kts 280°
2026-05-06 02:26 33.68665 -114.06743 27892 ft 420 kts 280°
2026-05-06 02:27 33.69291 -114.10169 27889 ft 422 kts 280°
2026-05-06 02:27 33.69917 -114.13617 27887 ft 423 kts 280°
2026-05-06 02:27 33.70546 -114.17078 27881 ft 425 kts 280°
2026-05-06 02:27 33.71178 -114.20552 27877 ft 426 kts 280°
2026-05-06 02:28 33.71808 -114.24038 27886 ft 428 kts 280°
2026-05-06 02:28 33.72440 -114.27534 27883 ft 429 kts 280°
2026-05-06 02:28 33.73072 -114.31039 27881 ft 430 kts 280°
2026-05-06 02:28 33.73708 -114.34555 27885 ft 431 kts 280°
2026-05-06 02:29 33.74340 -114.38080 27893 ft 432 kts 280°
2026-05-06 02:29 33.74975 -114.41613 27888 ft 433 kts 281°
2026-05-06 02:29 33.75611 -114.45158 27888 ft 434 kts 281°
2026-05-06 02:29 33.76248 -114.48709 27886 ft 435 kts 281°
2026-05-06 02:30 33.76881 -114.52266 27885 ft 436 kts 281°
2026-05-06 02:30 33.77659 -114.55795 27888 ft 438 kts 287°
2026-05-06 02:30 33.78718 -114.59232 27895 ft 439 kts 290°
2026-05-06 02:30 33.79889 -114.62581 27894 ft 441 kts 291°
2026-05-06 02:31 33.81081 -114.65978 27899 ft 441 kts 291°
2026-05-06 02:31 33.82222 -114.69408 27900 ft 442 kts 290°
2026-05-06 02:31 33.83329 -114.72861 27900 ft 443 kts 290°
2026-05-06 02:31 33.84446 -114.76319 27892 ft 444 kts 290°
2026-05-06 02:32 33.85564 -114.79780 27889 ft 444 kts 290°
2026-05-06 02:32 33.86681 -114.83251 27882 ft 445 kts 290°
2026-05-06 02:32 33.87800 -114.86721 27887 ft 446 kts 290°
2026-05-06 02:32 33.88919 -114.90209 27598 ft 446 kts 290°
2026-05-06 02:33 33.90025 -114.93650 26997 ft 436 kts 290°
2026-05-06 02:33 33.90745 -114.95888 26603 ft 430 kts 291°
2026-05-06 02:34 33.94246 -115.06812 24681 ft 410 kts 291°
2026-05-06 02:34 33.95240 -115.10007 24132 ft 406 kts 288°
2026-05-06 02:34 33.95574 -115.13357 23593 ft 404 kts 269°
2026-05-06 02:34 33.95318 -115.16715 22984 ft 402 kts 262°
2026-05-06 02:35 33.94779 -115.20010 22357 ft 400 kts 258°
2026-05-06 02:35 33.94161 -115.23267 21746 ft 398 kts 258°
2026-05-06 02:35 33.93549 -115.26508 21144 ft 395 kts 258°
2026-05-06 02:35 33.92997 -115.29736 20556 ft 393 kts 260°
2026-05-06 02:36 33.92488 -115.32963 19977 ft 391 kts 260°
2026-05-06 02:36 33.91980 -115.36164 19416 ft 389 kts 260°
2026-05-06 02:36 33.91464 -115.39351 18868 ft 387 kts 260°
2026-05-06 02:36 33.90947 -115.42552 18375 ft 393 kts 260°
2026-05-06 02:37 33.90420 -115.45797 17839 ft 398 kts 260°
2026-05-06 02:37 33.89882 -115.49085 17282 ft 402 kts 259°
2026-05-06 02:37 33.89335 -115.52395 16734 ft 404 kts 260°
2026-05-06 02:37 33.88785 -115.55706 16200 ft 403 kts 260°
2026-05-06 02:38 33.88228 -115.59012 15689 ft 403 kts 260°
2026-05-06 02:38 33.87746 -115.62305 15168 ft 393 kts 266°
2026-05-06 02:38 33.87667 -115.65534 14655 ft 380 kts 272°
2026-05-06 02:38 33.87743 -115.68628 14155 ft 370 kts 274°
2026-05-06 02:39 33.87815 -115.71691 13648 ft 363 kts 273°
2026-05-06 02:39 33.87869 -115.74696 13092 ft 356 kts 272°
2026-05-06 02:39 33.87882 -115.77654 12545 ft 350 kts 272°
2026-05-06 02:39 33.87883 -115.80565 12004 ft 345 kts 272°
2026-05-06 02:40 33.87881 -115.83423 11591 ft 338 kts 272°
2026-05-06 02:40 33.87877 -115.86216 11225 ft 329 kts 272°
2026-05-06 02:40 33.87869 -115.88899 10867 ft 312 kts 272°
2026-05-06 02:40 33.87852 -115.91452 10498 ft 299 kts 272°
2026-05-06 02:41 33.87829 -115.93915 10132 ft 289 kts 272°
2026-05-06 02:41 33.87563 -115.96270 9776 ft 284 kts 252°
2026-05-06 02:41 33.86716 -115.98398 9379 ft 284 kts 243°
2026-05-06 02:41 33.85701 -116.00453 8979 ft 287 kts 239°
2026-05-06 02:42 33.84632 -116.02456 8580 ft 281 kts 239°
2026-05-06 02:42 33.83571 -116.04403 8235 ft 275 kts 239°
2026-05-06 02:42 33.82532 -116.06301 8087 ft 268 kts 239°
2026-05-06 02:42 33.81557 -116.08150 8034 ft 256 kts 240°
2026-05-06 02:43 33.80631 -116.09953 7985 ft 255 kts 241°
2026-05-06 02:43 33.79689 -116.11804 7978 ft 264 kts 241°
2026-05-06 02:43 33.78721 -116.13706 7977 ft 270 kts 241°
2026-05-06 02:43 33.77725 -116.15654 7936 ft 277 kts 241°
2026-05-06 02:44 33.76698 -116.17668 7679 ft 290 kts 240°
2026-05-06 02:44 33.75678 -116.19664 7172 ft 269 kts 240°
2026-05-06 02:44 33.74683 -116.21609 6615 ft 277 kts 240°
2026-05-06 02:44 33.73670 -116.23593 6139 ft 279 kts 240°
2026-05-06 02:45 33.72630 -116.25560 5686 ft 278 kts 239°
2026-05-06 02:45 33.71668 -116.27521 5440 ft 267 kts 246°
2026-05-06 02:45 33.71083 -116.29560 5175 ft 249 kts 261°
2026-05-06 02:45 33.70922 -116.31557 4966 ft 232 kts 272°
2026-05-06 02:46 33.71091 -116.33394 4759 ft 215 kts 286°
2026-05-06 02:46 33.71547 -116.35064 4399 ft 207 kts 290°
2026-05-06 02:46 33.72056 -116.36652 3971 ft 201 kts 291°
2026-05-06 02:46 33.72588 -116.38196 3524 ft 199 kts 292°
2026-05-06 02:47 33.73145 -116.39728 3047 ft 201 kts 292°
2026-05-06 02:47 33.73702 -116.41269 2669 ft 198 kts 295°
2026-05-06 02:47 33.74345 -116.42684 2473 ft 187 kts 305°
2026-05-06 02:47 33.75134 -116.43744 2343 ft 158 kts 318°
2026-05-06 02:48 33.75924 -116.44539 2092 ft 142 kts 323°
2026-05-06 02:48 33.76701 -116.45190 1998 ft 131 kts 326°
2026-05-06 02:48 33.77411 -116.45827 1797 ft 127 kts 323°
2026-05-06 02:48 33.78143 -116.46493 1553 ft 134 kts 322°
2026-05-06 02:49 33.78890 -116.47150 1313 ft 129 kts 321°
2026-05-06 02:49 33.79586 -116.47769 1092 ft 119 kts 322°
2026-05-06 02:49 33.80191 -116.48300 893 ft 100 kts 320°
2026-05-06 02:49 33.80797 -116.48837 791 ft 119 kts 323°
2026-05-06 02:50 33.81478 -116.49440 639 ft 120 kts 324°
2026-05-06 02:50 33.82134 -116.50021 425 ft 109 kts 323°
2026-05-06 02:50 33.82645 -116.50477 421 ft 72 kts 323°
2026-05-06 02:50 33.82975 -116.50770 437 ft 49 kts 324°
2026-05-06 02:51 33.83225 -116.50991 448 ft 37 kts 324°
2026-05-06 02:51 33.83321 -116.51153 452 ft 15 kts 248°
2026-05-06 02:51 33.83292 -116.51195 452 ft 0 kts 220°
2026-05-06 02:51 33.83283 -116.51204 452 ft 7 kts 216°
2026-05-06 02:52 33.83207 -116.51193 450 ft 17 kts 144°
2026-05-06 02:52 33.83065 -116.51068 445 ft 31 kts 143°
2026-05-06 02:52 33.82895 -116.50913 437 ft 29 kts 140°
2026-05-06 02:52 33.82750 -116.50777 438 ft 24 kts 144°
2026-05-06 02:53 33.82630 -116.50670 429 ft 20 kts 143°
2026-05-06 02:53 33.82504 -116.50558 424 ft 25 kts 143°
2026-05-06 02:53 33.82358 -116.50428 412 ft 20 kts 144°
2026-05-06 02:53 33.82283 -116.50460 419 ft 14 kts 240°
2026-05-06 02:54 33.82262 -116.50555 420 ft 9 kts 295°
2026-05-06 02:54 33.82274 -116.50586 419 ft 0 kts 294°